This is the latest recevied weather packets stored in our database for station/object SP1BMW-13. If no packets are shown the sender has not sent any weather packets the latest 10 day(s).
| Time | Temp. | Humidity | Pressure | Rain* | Wind** | Luminosity | Snow |
|---|---|---|---|---|---|---|---|
| 1787838796 | 26.11° C | 37% | 1017.7 hPa | 0 mm | 1.34 m/s, 65° | 461 W/m² | - |
| 1787838736 | 26.67° C | 37% | 1017.9 hPa | 0 mm | 2.24 m/s, 142° | 461 W/m² | - |
| 1787838676 | 26.67° C | 37% | 1017.8 hPa | 0 mm | 2.68 m/s, 103° | 462 W/m² | - |
| 1787838616 | 26.67° C | 38% | 1018 hPa | 0 mm | 0.89 m/s, 191° | 467 W/m² | - |
| 1787838556 | 26.67° C | 37% | 1018.1 hPa | 0 mm | 0.89 m/s, 67° | 467 W/m² | - |
| 1787838496 | 26.11° C | 37% | 1017.9 hPa | 0 mm | 0.45 m/s, 259° | 472 W/m² | - |
| 1787838436 | 26.11° C | 38% | 1017.9 hPa | 0 mm | 0.45 m/s, 137° | 471 W/m² | - |
| 1787838376 | 26.11° C | 38% | 1018 hPa | 0 mm | 0.45 m/s, 48° | 473 W/m² | - |
| 1787838316 | 26.11° C | 38% | 1018.2 hPa | 0 mm | 0.89 m/s, 97° | 477 W/m² | - |
| 1787838256 | 26.11° C | 39% | 1018.1 hPa | 0 mm | 0 m/s | 479 W/m² | - |
| 1787838196 | 26.11° C | 38% | 1018 hPa | 0 mm | 0.45 m/s, 37° | 481 W/m² | - |
| 1787838136 | 26.11° C | 37% | 1018.2 hPa | 0 mm | 1.79 m/s, 61° | 483 W/m² | - |
| 1787838076 | 26.11° C | 36% | 1018.1 hPa | 0 mm | 1.34 m/s, 88° | 483 W/m² | - |
| 1787838016 | 26.11° C | 38% | 1018 hPa | 0 mm | 1.79 m/s, 39° | 483 W/m² | - |
| 1787837956 | 26.11° C | 38% | 1017.9 hPa | 0 mm | 0.89 m/s, 83° | 482 W/m² | - |
| 1787837895 | 26.11° C | 37% | 1018.1 hPa | 0 mm | 2.24 m/s, 26° | 485 W/m² | - |
| 1787837835 | 26.11° C | 37% | 1017.9 hPa | 0 mm | 2.24 m/s, 44° | 485 W/m² | - |
| 1787837775 | 26.11° C | 37% | 1018.2 hPa | 0 mm | 0.89 m/s, 92° | 494 W/m² | - |
| 1787837716 | 26.11° C | 38% | 1018 hPa | 0 mm | 0.45 m/s, 54° | 495 W/m² | - |
| 1787837655 | 26.11° C | 37% | 1018 hPa | 0 mm | 1.79 m/s, 81° | 496 W/m² | - |
| 1787837595 | 26.11° C | 38% | 1018.1 hPa | 0 mm | 0.89 m/s, 93° | 499 W/m² | - |
| 1787837536 | 26.11° C | 38% | 1018 hPa | 0 mm | 0.89 m/s, 23° | 503 W/m² | - |
| 1787837475 | 26.11° C | 38% | 1018 hPa | 0 mm | 0.45 m/s, 53° | 503 W/m² | - |
| 1787837416 | 26.11° C | 38% | 1017.8 hPa | 0 mm | 3.13 m/s, 43° | 505 W/m² | - |
| 1787837356 | 26.11° C | 37% | 1017.9 hPa | 0 mm | 2.68 m/s, 45° | 506 W/m² | - |
* Rain latest hour (hover to see other rain measurements)
** Current wind speed in m/s (hover to see current wind gust speed)